Terminal Aerodrome Forecast
Issued by NWS Charleston, WV

Current Version | Previous Version | Graphics & Text | Print | Product List | Glossary On
Versions: 1 2 3 4 5 6 7 8 9 10 11 12 13 14 15 16 17 18 19 20 21 22 23
000
FTUS41 KRLX 270246 AAA
TAFEKN
TAF AMD
KEKN 270246Z 2703/2724 28007KT P6SM SCT050
     FM270600 VRB03KT 5SM -SHRA BKN050
     FM271200 21004KT P6SM SHRA BKN028
     FM271800 26006G15KT P6SM SHRA VCTS BKN012CB=

USA.gov is the U.S. government's official web portal to all federal, state and local government web resources and services.